[[{"header":{"parameterUnit":"m.s-1","parameterCategory":2,"la1":30.2992,"la2":30.254,"lo1":-89.0895,"lo2":-89.0443,"dy":0.0025,"dx":0.0025,"nx":19,"ny":19,"refTime":"2026-04-05T03:00:00:Z","depth":"0","parameterNumber":2,"parameterNumberName":"U-component_of_CURRENTS"},"data":[0,0,0,-0.1574,-0.1577,-0.1664,-0.1664,-0.1702,-0.1702,0,0,0,0,0,0,0,0,0,0,0,-0.1537,-0.1538,-0.1574,-0.1577,-0.1664,-0.1664,-0.1702,-0.1702,0,0,0,0,0,0,0,0,0,0,0,-0.1537,-0.1538,-0.1538,-0.1577,-0.1664,-0.1664,-0.1702,-0.1652,0,0,0,0,0,0,0,0,0,0,-0.1576,-0.1538,-0.1537,-0.1538,-0.1578,-0.1664,-0.1664,-0.1651,-0.1655,-0.1644,0,-0.1662,0,-0.1689,-0.1704,-0.1704,0,0,0,-0.1569,-0.1534,-0.1578,-0.1538,-0.1579,-0.1664,-0.1622,-0.1654,-0.1659,-0.165,-0.1663,-0.1665,-0.1689,-0.1704,-0.1704,-0.1743,-0.1743,0,0,-0.1564,-0.1532,-0.1574,-0.1581,-0.1606,-0.162,-0.1625,-0.1658,-0.1651,-0.1663,-0.1667,-0.169,-0.1704,-0.1704,-0.1743,-0.1743,0,0,0,-0.1555,-0.1528,-0.1572,-0.1579,-0.1604,-0.1622,-0.1629,-0.165,-0.167,-0.1668,-0.169,-0.1704,-0.1704,-0.1742,-0.1743,-0.175,0,0,0,-0.1552,-0.1525,-0.1569,-0.1548,-0.1604,-0.1634,-0.1619,-0.1668,-0.1673,-0.169,-0.1704,-0.1705,-0.1742,-0.1743,-0.175,-0.1734,0,0,0,-0.1532,-0.1522,-0.1539,-0.1547,-0.1592,-0.1635,-0.1657,-0.167,-0.1687,-0.1704,-0.1705,-0.1742,-0.1743,-0.1749,-0.1733,-0.1746,0,0,0,-0.1487,-0.1499,-0.1537,-0.1556,-0.1591,-0.1648,-0.1657,-0.1688,-0.1702,-0.1704,-0.1742,-0.1743,-0.1749,-0.1733,-0.1745,-0.1638,-0.1632,0,0,-0.1478,-0.1497,-0.151,-0.1548,-0.1595,-0.1635,-0.1676,-0.1698,-0.1707,-0.1724,-0.1726,-0.175,-0.1733,-0.1746,-0.1673,-0.1665,0,0,0,-0.1492,-0.1499,-0.152,-0.1557,-0.1613,-0.1656,-0.1693,-0.1721,-0.175,-0.1722,-0.176,-0.1749,-0.1757,-0.1692,-0.1686,-0.1628,-0.1745,-0.1745,-0.1745,-0.1415,-0.1468,-0.1488,-0.1554,-0.1591,-0.1671,-0.1709,-0.1751,-0.1758,-0.178,-0.1763,-0.1786,-0.1717,-0.1712,-0.1654,-0.1783,-0.1783,-0.1783,-0.1783,-0.1386,-0.1392,-0.146,-0.1497,-0.1568,-0.1605,-0.1706,-0.1739,-0.1794,-0.1793,-0.1801,-0.1712,-0.1705,-0.1647,-0.1784,-0.1784,-0.1784,-0.1784,-0.1784,-0.1312,-0.1324,-0.1362,-0.1419,-0.1474,-0.1558,-0.1621,-0.1707,-0.1769,-0.1794,-0.1721,-0.1719,-0.1659,-0.1797,-0.1797,-0.1797,-0.1797,-0.1797,-0.1797,-0.1214,-0.1261,-0.1264,-0.1336,-0.1367,-0.1432,-0.1572,-0.1627,-0.1679,-0.1707,-0.1706,-0.1649,-0.179,-0.178,-0.1796,-0.1796,-0.1796,-0.1796,-0.1796,-0.1105,-0.1133,-0.1143,-0.1169,-0.1255,-0.1283,-0.1437,-0.1517,-0.1589,-0.1587,-0.1539,-0.167,-0.1653,-0.1657,-0.1644,-0.1624,-0.1624,-0.1624,-0.1624,-0.1009,-0.1031,-0.1032,-0.1059,-0.1114,-0.1209,-0.1237,-0.1329,-0.1396,-0.1378,-0.1439,-0.1404,-0.1414,-0.1383,-0.1393,-0.1375,-0.1288,-0.1287,-0.1287,-0.0919,-0.095,-0.091,-0.0972,-0.1043,-0.1104,-0.1097,-0.1142,-0.121,-0.1273,-0.1384,-0.1398,-0.135,-0.137,-0.1326,-0.1344,-0.1316,0,0]},{"header":{"parameterUnit":"m.s-1","parameterCategory":2,"la1":30.2992,"la2":30.254,"lo1":-89.0895,"lo2":-89.0443,"dy":0.0025,"dx":0.0025,"nx":19,"ny":19,"refTime":"2026-04-05T03:00:00:Z","depth":"0","parameterNumber":3,"parameterNumberName":"V-component_of_CURRENTS"},"data":[0,0,0,-0.0567,-0.0566,-0.0566,-0.0567,-0.0656,-0.0657,0,0,0,0,0,0,0,0,0,0,0,-0.059,-0.059,-0.0567,-0.0565,-0.0566,-0.0567,-0.0656,-0.0657,0,0,0,0,0,0,0,0,0,0,0,-0.059,-0.059,-0.0589,-0.0565,-0.0566,-0.0567,-0.0656,-0.0641,0,0,0,0,0,0,0,0,0,0,-0.0632,-0.0638,-0.059,-0.0589,-0.0565,-0.0566,-0.0567,-0.0639,-0.0642,-0.0671,0,-0.0665,0,-0.064,-0.0662,-0.0662,0,0,0,-0.0597,-0.0636,-0.0618,-0.0589,-0.0565,-0.0566,-0.0575,-0.064,-0.0643,-0.0674,-0.0666,-0.0667,-0.0642,-0.0662,-0.0663,-0.0677,-0.0676,0,0,-0.0596,-0.0612,-0.0615,-0.0619,-0.0558,-0.0574,-0.0574,-0.0641,-0.0654,-0.0666,-0.0669,-0.0643,-0.0663,-0.0663,-0.0677,-0.0677,0,0,0,-0.0575,-0.0612,-0.0592,-0.0617,-0.0597,-0.0574,-0.0574,-0.0652,-0.064,-0.0669,-0.0644,-0.0663,-0.0664,-0.0678,-0.0677,-0.067,0,0,0,-0.0577,-0.0596,-0.0592,-0.0604,-0.0595,-0.0612,-0.0583,-0.0636,-0.0641,-0.0644,-0.0663,-0.0665,-0.0678,-0.0677,-0.0672,-0.0687,0,0,0,-0.0591,-0.0598,-0.0592,-0.0604,-0.0585,-0.061,-0.0604,-0.0637,-0.0625,-0.0662,-0.0665,-0.0678,-0.0677,-0.0673,-0.0688,-0.0609,0,0,0,-0.0616,-0.0635,-0.0593,-0.0619,-0.0585,-0.0621,-0.0603,-0.0655,-0.0695,-0.0664,-0.0678,-0.0677,-0.0673,-0.0689,-0.0611,-0.0562,-0.055,0,0,-0.0657,-0.0641,-0.0658,-0.0619,-0.0652,-0.0623,-0.0651,-0.0693,-0.0678,-0.0669,-0.0669,-0.0671,-0.0688,-0.0609,-0.0504,-0.0494,0,0,0,-0.0683,-0.0689,-0.0699,-0.07,-0.0706,-0.0696,-0.071,-0.0678,-0.0653,-0.0685,-0.0653,-0.0664,-0.0614,-0.0587,-0.0579,-0.0421,-0.0672,-0.0673,-0.0673,-0.0753,-0.0742,-0.077,-0.0757,-0.0772,-0.0754,-0.0729,-0.0675,-0.0682,-0.0639,-0.0644,-0.0565,-0.0537,-0.053,-0.0369,-0.0617,-0.0617,-0.0617,-0.0617,-0.0808,-0.0813,-0.0798,-0.0815,-0.0789,-0.0796,-0.0722,-0.0688,-0.0586,-0.0604,-0.0554,-0.0566,-0.052,-0.0351,-0.0616,-0.0616,-0.0616,-0.0616,-0.0616,-0.0861,-0.085,-0.0848,-0.0837,-0.0822,-0.0795,-0.0749,-0.0689,-0.0585,-0.0546,-0.0471,-0.0471,-0.0332,-0.0504,-0.0504,-0.0504,-0.0504,-0.0503,-0.0503,-0.089,-0.0881,-0.0874,-0.0856,-0.0839,-0.0823,-0.0762,-0.0693,-0.0546,-0.0462,-0.0461,-0.0276,-0.053,-0.0545,-0.0499,-0.05,-0.05,-0.0501,-0.0501,-0.0907,-0.0894,-0.0885,-0.0872,-0.0844,-0.0848,-0.0798,-0.0639,-0.0518,-0.0408,-0.0138,-0.0385,-0.0374,-0.038,-0.039,-0.0307,-0.0307,-0.0307,-0.0307,-0.0902,-0.0902,-0.0863,-0.0846,-0.0847,-0.0853,-0.0793,-0.0611,-0.024,-0.0029,0.0031,0.0029,0.0014,0.0048,0.0032,0.0031,0.0219,0.022,0.0221,-0.0873,-0.087,-0.0838,-0.0832,-0.0837,-0.0871,-0.0823,-0.0582,-0.0016,0.0257,0.0248,0.0225,0.0233,0.0197,0.0252,0.0217,0.0213,0,0]}],[{"header":{"parameterUnit":"m.s-1","parameterCategory":2,"la1":30.2992,"la2":30.254,"lo1":-89.0895,"lo2":-89.0443,"dy":0.0025,"dx":0.0025,"nx":19,"ny":19,"refTime":"2026-04-05T03:00:00:Z","depth":"2","parameterNumber":2,"parameterNumberName":"U-component_of_CURRENTS"},"data":[0,0,0,-0.1622,-0.1621,-0.1684,-0.1685,-0.1785,-0.1785,0,0,0,0,0,0,0,0,0,0,0,-0.1625,-0.1625,-0.1622,-0.1621,-0.1684,-0.1685,-0.1784,-0.1785,0,0,0,0,0,0,0,0,0,0,0,-0.1625,-0.1625,-0.1625,-0.1621,-0.1684,-0.1685,-0.1784,-0.1743,0,0,0,0,0,0,0,0,0,0,-0.1684,-0.1656,-0.1625,-0.1625,-0.1621,-0.1684,-0.1685,-0.1741,-0.1746,-0.1747,0,-0.1745,0,-0.1736,-0.1788,-0.1788,0,0,0,-0.1666,-0.1653,-0.1668,-0.1625,-0.1621,-0.1683,-0.1669,-0.1744,-0.1749,-0.1753,-0.1746,-0.1749,-0.1737,-0.1788,-0.1788,-0.1876,-0.1877,0,0,-0.1663,-0.1643,-0.1664,-0.167,-0.1621,-0.1666,-0.167,-0.1747,-0.1746,-0.1746,-0.1751,-0.1739,-0.1788,-0.1789,-0.1876,-0.1876,0,0,0,-0.1623,-0.164,-0.1655,-0.1667,-0.1659,-0.1667,-0.1671,-0.1744,-0.1747,-0.1752,-0.174,-0.1789,-0.1789,-0.1875,-0.1876,-0.1856,0,0,0,-0.1623,-0.1613,-0.1652,-0.1642,-0.1657,-0.1693,-0.1666,-0.1744,-0.175,-0.174,-0.1789,-0.179,-0.1874,-0.1875,-0.1855,-0.1828,0,0,0,-0.1625,-0.1613,-0.1615,-0.1641,-0.1644,-0.1692,-0.1703,-0.1746,-0.1741,-0.1788,-0.179,-0.1874,-0.1875,-0.1855,-0.1828,-0.1833,0,0,0,-0.1611,-0.1615,-0.1615,-0.1628,-0.1643,-0.1693,-0.1703,-0.1765,-0.1811,-0.1789,-0.1874,-0.1876,-0.1854,-0.1828,-0.1833,-0.1681,-0.167,0,0,-0.1612,-0.1614,-0.1628,-0.1629,-0.1669,-0.1688,-0.1744,-0.1814,-0.1832,-0.1856,-0.1858,-0.1856,-0.1828,-0.1833,-0.1768,-0.1753,0,0,0,-0.1628,-0.1631,-0.1655,-0.1665,-0.1701,-0.174,-0.1793,-0.1823,-0.1881,-0.1854,-0.1892,-0.1876,-0.1879,-0.1788,-0.1778,-0.1883,-0.1883,-0.1882,-0.1882,-0.1576,-0.1613,-0.1631,-0.1681,-0.1708,-0.1782,-0.1832,-0.1876,-0.1895,-0.1931,-0.1887,-0.1913,-0.1819,-0.1809,-0.1929,-0.1929,-0.1929,-0.1929,-0.1929,-0.1545,-0.1535,-0.1586,-0.1616,-0.1667,-0.1698,-0.181,-0.1861,-0.1915,-0.1923,-0.1928,-0.1806,-0.1795,-0.1929,-0.1929,-0.1929,-0.1929,-0.1929,-0.1929,-0.1478,-0.1472,-0.1503,-0.1522,-0.1553,-0.164,-0.1681,-0.1791,-0.1869,-0.189,-0.1794,-0.1792,-0.1873,-0.1889,-0.1889,-0.1889,-0.1889,-0.1889,-0.1889,-0.1361,-0.1396,-0.1395,-0.144,-0.1446,-0.1485,-0.1618,-0.1664,-0.1715,-0.1755,-0.1754,-0.1899,-0.1901,-0.1872,-0.1887,-0.1888,-0.1888,-0.1888,-0.1888,-0.1242,-0.1273,-0.1263,-0.1279,-0.1318,-0.1304,-0.1448,-0.1491,-0.1569,-0.1554,-0.1689,-0.1694,-0.1682,-0.1689,-0.1657,-0.1615,-0.1615,-0.1615,-0.1615,-0.1139,-0.1166,-0.1132,-0.1145,-0.1161,-0.122,-0.1179,-0.1222,-0.1348,-0.1381,-0.1391,-0.1359,-0.1375,-0.1345,-0.136,-0.1322,-0.1193,-0.1193,-0.1192,-0.1037,-0.1054,-0.1,-0.1055,-0.1084,-0.1086,-0.0995,-0.0951,-0.1041,-0.118,-0.136,-0.1579,-0.1559,-0.1573,-0.1552,-0.1567,-0.1515,0,0]},{"header":{"parameterUnit":"m.s-1","parameterCategory":2,"la1":30.2992,"la2":30.254,"lo1":-89.0895,"lo2":-89.0443,"dy":0.0025,"dx":0.0025,"nx":19,"ny":19,"refTime":"2026-04-05T03:00:00:Z","depth":"2","parameterNumber":3,"parameterNumberName":"V-component_of_CURRENTS"},"data":[0,0,0,0.0226,0.0226,0.0299,0.03,0.035,0.0349,0,0,0,0,0,0,0,0,0,0,0,0.0179,0.0178,0.0226,0.0226,0.0299,0.03,0.035,0.0349,0,0,0,0,0,0,0,0,0,0,0,0.018,0.0179,0.0177,0.0226,0.0299,0.03,0.035,0.0315,0,0,0,0,0,0,0,0,0,0,0.0254,0.0196,0.0179,0.0177,0.0226,0.0298,0.03,0.0315,0.0317,0.0291,0,0.0255,0,0.0291,0.0348,0.0348,0,0,0,0.0268,0.0194,0.0213,0.0177,0.0226,0.0298,0.0278,0.0317,0.032,0.0294,0.0256,0.0259,0.0292,0.0348,0.0348,0.0306,0.0306,0,0,0.0264,0.0206,0.0211,0.0213,0.0181,0.0275,0.0279,0.032,0.0294,0.0256,0.0261,0.0292,0.0348,0.0347,0.0306,0.0306,0,0,0,0.0224,0.0202,0.0223,0.021,0.022,0.0276,0.0281,0.0293,0.0297,0.0262,0.0293,0.0347,0.0347,0.0307,0.0306,0.0184,0,0,0,0.0224,0.0177,0.022,0.0189,0.0217,0.0261,0.0252,0.0295,0.0301,0.0293,0.0347,0.0347,0.0307,0.0306,0.0188,0.0164,0,0,0,0.0188,0.0174,0.0163,0.0185,0.0201,0.0262,0.0272,0.0298,0.0318,0.0348,0.0347,0.0307,0.0306,0.0192,0.017,0.0181,0,0,0,0.0158,0.012,0.016,0.0148,0.0199,0.0244,0.0273,0.0336,0.0366,0.0347,0.0307,0.0306,0.0193,0.0173,0.0184,0.0207,0.0197,0,0,0.0109,0.0111,0.0119,0.0159,0.0165,0.0241,0.0233,0.0296,0.0339,0.0298,0.0298,0.0187,0.017,0.0182,0.0167,0.0158,0,0,0,0.0109,0.0096,0.0117,0.0118,0.0165,0.0183,0.0236,0.0249,0.0252,0.0341,0.0207,0.0202,0.0213,0.0232,0.0225,0.0303,0.0303,0.0303,0.0303,-0.0019,0.0032,0.0014,0.0059,0.0083,0.0133,0.0149,0.0162,0.0188,0.0178,0.0116,0.0063,0.008,0.0076,0.0118,0.0118,0.0117,0.0117,0.0116,-0.009,-0.0089,-0.0067,-0.0063,-0.0046,-0.0051,-0.0005,0.0021,0.0,0.0036,0.0051,0.0119,0.0061,0.0107,0.0109,0.011,0.0111,0.0112,0.0112,-0.0088,-0.0115,-0.0132,-0.0185,-0.0206,-0.0158,-0.0169,-0.0139,-0.0085,-0.0096,-0.0006,-0.0004,0.0015,-0.0079,-0.0079,-0.0079,-0.0079,-0.0079,-0.0079,-0.0142,-0.0176,-0.0241,-0.0287,-0.031,-0.0311,-0.0269,-0.0241,-0.0155,-0.0102,-0.0101,-0.0,0.0006,0.0008,-0.0081,-0.0081,-0.008,-0.008,-0.008,-0.0151,-0.0236,-0.0303,-0.0353,-0.0427,-0.0439,-0.0398,-0.0293,-0.0231,-0.0167,-0.0084,-0.0084,-0.0021,-0.0013,-0.001,-0.0097,-0.0097,-0.0097,-0.0097,-0.0212,-0.024,-0.0404,-0.0463,-0.0501,-0.0497,-0.0473,-0.0345,-0.0189,-0.0105,-0.0105,-0.0089,-0.0088,-0.0026,-0.0018,-0.0013,-0.0101,-0.0102,-0.0102,-0.0289,-0.0332,-0.0406,-0.0482,-0.0536,-0.0538,-0.0511,-0.0358,-0.0139,-0.0103,-0.012,-0.0095,-0.0068,-0.0068,0.0034,0.0043,0.0055,0,0]}],[{"header":{"parameterUnit":"m.s-1","parameterCategory":2,"la1":30.2992,"la2":30.254,"lo1":-89.0895,"lo2":-89.0443,"dy":0.0025,"dx":0.0025,"nx":19,"ny":19,"refTime":"2026-04-05T03:00:00:Z","depth":"4","parameterNumber":2,"parameterNumberName":"U-component_of_CURRENTS"},"data":[0,0,0,-0.0862,-0.0864,-0.0943,-0.0944,-0.0992,-0.0992,0,0,0,0,0,0,0,0,0,0,0,-0.083,-0.083,-0.0862,-0.0864,-0.0943,-0.0944,-0.0992,-0.0992,0,0,0,0,0,0,0,0,0,0,0,-0.0829,-0.083,-0.083,-0.0864,-0.0943,-0.0944,-0.0992,-0.0946,0,0,0,0,0,0,0,0,0,0,-0.0875,-0.0857,-0.083,-0.083,-0.0865,-0.0943,-0.0944,-0.0944,-0.0949,-0.094,0,-0.095,0,-0.0972,-0.0994,-0.0994,0,0,0,-0.0866,-0.0854,-0.087,-0.083,-0.0865,-0.0943,-0.0908,-0.0947,-0.0952,-0.0945,-0.0951,-0.0953,-0.0973,-0.0994,-0.0994,-0.1091,-0.1092,0,0,-0.0862,-0.0849,-0.0867,-0.0873,-0.0882,-0.0906,-0.0911,-0.0951,-0.0955,-0.0951,-0.0955,-0.0974,-0.0994,-0.0995,-0.1091,-0.1092,0,0,0,-0.0848,-0.0846,-0.0863,-0.0871,-0.089,-0.0908,-0.0914,-0.0954,-0.0958,-0.0956,-0.0974,-0.0995,-0.0995,-0.109,-0.1091,-0.1123,0,0,0,-0.0845,-0.0838,-0.0861,-0.0855,-0.0889,-0.0932,-0.0916,-0.0955,-0.0961,-0.0974,-0.0995,-0.0995,-0.1089,-0.109,-0.112,-0.1125,0,0,0,-0.0827,-0.0836,-0.0843,-0.0854,-0.0887,-0.0932,-0.0939,-0.0958,-0.0972,-0.0994,-0.0995,-0.1088,-0.109,-0.1118,-0.1122,-0.1132,0,0,0,-0.0814,-0.0819,-0.0843,-0.0863,-0.0887,-0.0953,-0.094,-0.099,-0.1013,-0.0995,-0.1089,-0.1091,-0.1117,-0.1119,-0.113,-0.0936,0,0,0,-0.081,-0.0819,-0.0832,-0.0855,-0.0912,-0.0943,-0.1018,-0.1038,-0.1042,-0.1069,-0.1072,-0.1121,-0.1121,-0.1132,-0.106,0,0,0,0,-0.0825,-0.0831,-0.0854,-0.0895,-0.095,-0.1024,-0.1059,-0.1083,-0.1131,-0.1066,-0.1154,-0.1154,-0.1158,-0.1042,-0.1101,-0.1101,-0.11,-0.11,-0.11,-0.0787,-0.083,-0.0868,-0.0933,-0.0991,-0.1084,-0.1141,-0.1185,-0.1172,-0.1213,-0.1205,-0.1268,-0.1151,-0.1238,-0.1238,-0.1238,-0.1239,-0.1239,-0.1239,-0.0777,-0.0797,-0.0881,-0.093,-0.1029,-0.1104,-0.1216,-0.1237,-0.1296,-0.128,-0.1283,-0.1116,-0.1243,-0.1242,-0.1241,-0.1241,-0.1241,-0.124,-0.124,-0.0735,-0.0754,-0.0799,-0.0888,-0.0997,-0.1108,-0.119,-0.1269,-0.1316,-0.1341,-0.1193,-0.129,-0.1257,-0.1329,-0.1329,-0.133,-0.133,-0.133,-0.133,-0.0666,-0.0719,-0.0743,-0.0845,-0.0903,-0.1012,-0.1164,-0.1202,-0.1269,-0.1211,-0.1336,-0.1299,-0.1296,-0.1263,-0.1331,-0.1331,-0.1331,-0.1331,-0.1331,-0.0607,-0.0626,-0.0647,-0.0688,-0.0812,-0.089,-0.1047,-0.1091,-0.111,-0.1085,-0.1141,-0.115,-0.1114,-0.1115,-0.1074,-0.1089,-0.1087,-0.1085,0,-0.0551,-0.0568,-0.0573,-0.0604,-0.0667,-0.0813,-0.082,-0.0893,-0.0966,-0.0937,-0.1106,-0.1169,-0.1174,-0.1132,-0.113,-0.1081,0,0,0,-0.0515,-0.0517,-0.0497,-0.0532,-0.0597,-0.0697,-0.0822,-0.0802,-0.0968,-0.0919,-0.1028,-0.1043,-0.1187,-0.1336,-0.1301,-0.1297,-0.1242,0,0]},{"header":{"parameterUnit":"m.s-1","parameterCategory":2,"la1":30.2992,"la2":30.254,"lo1":-89.0895,"lo2":-89.0443,"dy":0.0025,"dx":0.0025,"nx":19,"ny":19,"refTime":"2026-04-05T03:00:00:Z","depth":"4","parameterNumber":3,"parameterNumberName":"V-component_of_CURRENTS"},"data":[0,0,0,0.0461,0.0462,0.052,0.0521,0.0592,0.0592,0,0,0,0,0,0,0,0,0,0,0,0.0444,0.0444,0.0461,0.0462,0.052,0.0521,0.0592,0.0592,0,0,0,0,0,0,0,0,0,0,0,0.0444,0.0444,0.0444,0.0462,0.052,0.0521,0.0592,0.0552,0,0,0,0,0,0,0,0,0,0,0.0496,0.0482,0.0444,0.0444,0.0462,0.052,0.0521,0.055,0.0554,0.0561,0,0.0565,0,0.0573,0.0596,0.0596,0,0,0,0.0474,0.0479,0.0486,0.0444,0.0463,0.052,0.0497,0.0552,0.0557,0.0566,0.0566,0.0568,0.0574,0.0596,0.0597,0.0614,0.0613,0,0,0.0471,0.0465,0.0483,0.0489,0.0471,0.0495,0.0499,0.0555,0.0562,0.0566,0.057,0.0576,0.0597,0.0597,0.0614,0.0614,0,0,0,0.0453,0.0463,0.0469,0.0486,0.0493,0.0497,0.0501,0.056,0.056,0.0571,0.0576,0.0597,0.0598,0.0614,0.0614,0.0514,0,0,0,0.0452,0.0451,0.0468,0.0466,0.0491,0.0529,0.0505,0.0556,0.0563,0.0576,0.0597,0.0598,0.0614,0.0614,0.0517,0.0462,0,0,0,0.0442,0.0451,0.0453,0.0466,0.0484,0.0528,0.0532,0.0558,0.0565,0.0596,0.0598,0.0615,0.0614,0.052,0.0468,0.0406,0,0,0,0.044,0.0435,0.0453,0.0448,0.0483,0.0493,0.0532,0.0555,0.0578,0.0597,0.0614,0.0614,0.052,0.0471,0.0409,0.0393,0,0,0,0.0428,0.0434,0.0427,0.0444,0.0431,0.0486,0.0472,0.0522,0.0572,0.0598,0.0599,0.0516,0.0468,0.0406,0.0365,0,0,0,0,0.0419,0.0411,0.0412,0.041,0.0427,0.0421,0.0479,0.0492,0.0516,0.0581,0.0534,0.0507,0.0471,0.0475,0.0611,0.0611,0.0612,0.0612,0.0612,0.0401,0.0393,0.0368,0.0359,0.0361,0.0382,0.0373,0.0403,0.0471,0.0465,0.0439,0.0342,0.0344,0.0463,0.0462,0.0462,0.0461,0.0461,0.0461,0.036,0.0336,0.0316,0.0288,0.0276,0.0268,0.0267,0.0295,0.028,0.0361,0.0331,0.0387,0.0451,0.0453,0.0455,0.0456,0.0457,0.0457,0.0458,0.0341,0.0323,0.0303,0.0243,0.019,0.0185,0.0114,0.0142,0.0182,0.0151,0.0178,0.027,0.0261,0.015,0.0149,0.0149,0.0148,0.0148,0.0148,0.0332,0.0304,0.0254,0.0192,0.0137,0.0072,0.0032,0.0007,0.004,0.0054,0.013,0.0237,0.0247,0.0244,0.0139,0.0141,0.0142,0.0143,0.0143,0.0296,0.0293,0.0212,0.0153,0.002,-0.0038,-0.0071,-0.0107,-0.0144,-0.0146,0.0002,0.0011,0.0041,0.0056,0.0048,-0.0119,-0.012,-0.012,0,0.0278,0.0269,0.0153,0.0043,-0.0076,-0.0117,-0.0189,-0.0207,-0.0169,-0.0155,-0.0137,0.0031,0.0039,0.0079,0.0091,0.0083,0,0,0,0.024,0.0213,0.0116,0.0013,-0.0131,-0.0192,-0.0212,-0.0219,-0.016,-0.0204,-0.0137,-0.0133,0.002,0.0115,0.0184,0.0197,0.0196,0,0]}]]